Temp_Advection
nan nan nan nan nan nan nan nan nan nan nan nan nan nan nan nan nan nan nan nan nan nan nan nan nan nan nan nan nan nan nan nan nan nan nan nan nan nan nan nan nan nan nan nan
nan -0 -0 -0 -0 0 0 0 -0 -0 -0 0 0 -0 0 0 -0 -0 -0 -1 -1 -1 0 0 0 -0 -1 -0 -0 -1 -1 -1 -0 0 0 0 0 0 0 0 0 0 0 nan
nan -0 -0 0 -0 -0 -0 0 0 -0 -0 -0 -0 -0 0 -0 -0 0 -0 -0 -0 0 -0 -1 -1 -1 -1 -1 -1 -1 -1 -0 0 0 0 0 0 0 -0 -0 0 0 0 nan
nan -0 0 0 -0 0 -0 -0 -0 0 -0 0 -0 0 0 0 0 0 -0 0 -0 -0 -1 -1 -0 -2 -1 -0 -0 0 1 0 1 1 0 -0 0 -0 -0 0 1 0 1 nan
nan 0 0 -0 -0 -0 -0 -0 -0 0 0 -0 0 -0 -0 -0 -0 -0 -0 -0 -0 -1 0 0 -1 -0 1 0 -0 1 1 0 1 1 0 0 0 -0 0 1 1 1 1 nan
nan -0 -0 -0 -0 0 0 0 -0 -0 0 -0 -0 -0 -0 -0 -0 -0 0 -0 -1 0 1 0 1 2 1 -0 0 1 0 1 0 0 0 1 1 0 1 1 1 1 1 nan
nan -0 -0 -0 -0 -0 -0 -0 -0 0 -0 -0 -0 -0 -0 -0 0 -0 -0 -1 -1 0 -0 0 1 -1 -1 -0 0 0 -0 -0 0 1 1 1 0 0 1 0 0 0 0 nan
nan -0 0 0 -0 -0 -0 -0 -0 0 0 -0 -0 -0 -0 -0 -0 0 -0 -0 0 -0 -1 -1 -1 -1 -1 0 0 -0 0 -0 1 2 1 0 0 0 0 0 0 0 1 nan
nan -0 -0 -0 -0 0 -0 0 -0 -0 0 0 -0 -0 -0 -0 0 -0 0 1 -0 -1 -0 0 -0 -1 0 0 -0 0 0 1 1 1 0 -0 0 0 0 0 1 1 2 nan
nan 0 0 -0 -0 -0 0 -0 -0 0 0 -0 -0 -0 -0 -0 -0 0 -0 -0 -0 0 1 0 -1 -0 1 0 0 1 0 1 1 1 0 0 0 0 0 1 1 2 2 nan
nan 0 0 0 -0 0 0 0 -0 -0 -0 0 0 -0 -0 -0 -0 0 0 -0 -0 -0 -0 -1 -1 0 1 0 0 0 1 1 1 0 0 -0 0 0 1 1 2 2 2 nan
nan -0 0 -0 -0 0 0 0 -0 0 0 0 0 -1 -0 0 -0 -1 -1 -0 -0 -0 -0 -0 0 1 0 0 1 1 1 1 0 0 0 1 1 1 2 2 2 2 1 nan
nan -0 0 -0 -0 -0 0 -0 -0 -1 -0 -0 -0 -1 -0 -0 -0 -0 -0 -1 0 0 0 0 0 0 0 1 1 1 1 1 1 1 2 2 1 1 2 2 1 1 1 nan
nan -0 -0 -0 -0 -0 -0 -0 -0 -1 -0 -0 -1 -1 -0 0 -0 -1 -1 0 1 0 0 1 1 1 1 1 0 1 2 2 1 2 2 1 2 2 2 1 1 1 1 nan
nan -0 -0 -0 -0 -0 -0 0 -0 -0 -0 -0 -0 -0 -0 -0 -0 -0 -1 0 0 1 1 1 0 0 1 1 1 2 3 2 2 2 2 2 2 1 1 1 1 1 1 nan
nan 0 0 -0 -0 0 0 0 0 -0 -0 0 -0 0 0 -0 -0 -0 0 1 0 0 0 0 0 1 2 2 1 2 3 2 1 2 2 2 1 1 1 1 1 1 0 nan
nan -0 0 0 -0 -0 -0 -0 -0 0 0 0 0 0 0 -0 -0 0 1 1 0 0 0 -0 -0 0 1 1 1 2 1 1 2 2 2 1 1 1 1 1 1 0 -0 nan
nan -0 -0 0 -0 -0 -1 -0 0 0 0 0 0 0 0 0 0 1 0 0 0 0 0 -0 -0 0 0 1 1 1 1 2 1 1 1 2 2 2 1 0 0 0 0 nan
nan -0 0 0 -0 -1 -0 0 -0 0 0 0 -0 0 0 1 0 -1 0 0 0 -0 0 0 0 0 1 1 1 1 1 1 1 2 2 1 1 0 0 -0 0 1 0 nan
nan -0 -0 0 0 0 -0 -0 -0 -0 0 -0 -0 -0 -0 -0 -0 -0 0 0 0 0 0 0 0 0 1 1 1 1 2 2 2 1 1 0 0 -0 -0 0 0 -0 0 nan
nan 0 0 -0 0 -1 -1 -0 0 -0 -0 -0 -0 -1 -0 -0 -0 -0 0 0 1 0 1 1 1 1 1 1 1 1 0 0 0 0 0 -0 -0 0 -0 -0 0 -0 -0 nan
nan -1 -0 0 0 -1 -0 0 0 -0 -0 0 -0 -0 -0 -1 -0 1 1 1 1 1 0 0 0 -0 0 1 0 0 -0 0 0 0 0 -0 -0 0 0 -0 -0 0 0 nan
nan -0 -0 -1 -0 -0 -0 -0 -0 -1 -1 0 0 0 -0 -1 0 1 1 0 0 1 0 0 0 -0 -0 0 0 0 0 0 -0 -0 -0 -0 -0 -0 -0 -0 -0 -0 -0 nan
nan -0 -0 0 0 -0 0 1 2 1 1 0 1 1 1 -0 1 0 0 1 1 0 0 0 0 0 -0 -0 -0 -0 -0 -0 -0 -0 -0 -0 -0 -0 -0 -0 -0 -0 -0 nan
nan -0 -0 -0 0 0 0 1 2 1 1 1 0 1 2 1 -0 0 0 0 0 0 0 0 0 -0 -0 -0 0 -0 -0 -0 -0 -0 -0 -0 0 -0 -0 -0 0 0 0 nan
nan nan nan nan nan nan nan nan nan nan nan nan nan nan nan nan nan nan nan nan nan nan nan nan nan nan nan nan nan nan nan nan nan nan nan nan nan nan nan nan nan nan nan nan
Wind_Speed
2 3 2 5 5 6 3 5 4 3 4 3 7 6 8 18 18 16 23 30 37 35 32 34 35 34 34 33 34 34 32 33 33 32 31 30 28 26 23 20 17 14 13 15
4 3 6 5 2 4 0 4 6 6 5 5 4 10 4 8 12 27 30 31 33 34 36 38 39 37 36 35 35 36 35 34 35 32 29 30 28 26 22 19 17 15 14 15
5 4 2 3 4 1 1 2 5 6 5 2 4 5 3 5 10 20 25 38 36 41 41 41 43 43 40 39 37 32 35 35 33 32 31 29 28 25 24 22 22 19 17 17
4 2 3 2 2 4 3 3 8 3 2 4 1 3 4 6 14 12 23 28 37 39 41 44 46 46 45 44 40 36 35 36 36 34 32 32 31 31 26 24 22 19 18 16
8 5 5 4 5 4 6 3 3 3 2 2 2 3 6 4 9 15 22 29 39 45 46 48 48 46 45 45 43 40 39 35 35 35 34 33 32 28 23 20 20 20 20 19
5 1 2 5 1 4 2 1 4 3 1 2 2 5 5 4 10 17 20 33 37 45 47 48 47 45 46 46 44 42 40 36 35 33 32 33 32 27 23 23 24 22 22 20
2 1 3 2 2 3 6 5 3 4 4 5 3 2 8 7 7 8 15 31 41 42 45 47 49 49 49 48 43 43 42 33 29 31 32 32 28 24 24 23 23 23 23 21
5 4 4 1 3 4 2 5 4 4 2 4 3 4 6 5 14 0 10 29 35 36 41 46 49 50 49 47 45 42 42 31 29 29 27 27 24 22 22 21 22 23 25 27
4 3 3 3 1 4 1 0 2 6 3 3 3 7 10 7 4 7 3 12 21 31 36 42 44 47 48 45 40 39 39 29 26 26 25 25 23 22 23 24 25 27 30 30
7 2 2 4 3 7 4 5 1 2 3 2 4 4 5 6 5 4 7 11 20 20 25 35 40 41 41 38 36 34 29 26 25 26 26 25 26 26 27 28 28 30 34 31
6 5 2 1 6 7 2 1 1 4 4 4 1 5 6 7 6 6 7 5 13 19 23 25 28 34 35 38 35 31 27 26 26 27 28 29 29 30 28 27 30 32 31 18
7 6 4 9 2 2 2 5 5 4 4 1 4 6 4 8 8 8 13 9 9 12 14 16 19 23 30 33 32 32 29 29 28 29 29 30 33 32 32 31 31 29 15 26
8 1 3 6 5 4 4 5 4 4 4 6 5 6 3 6 6 16 17 18 16 18 19 20 23 24 26 30 33 33 31 32 30 29 31 34 34 31 32 30 26 21 21 18
14 5 8 8 8 4 4 5 5 6 3 4 6 6 6 8 5 10 15 23 22 23 26 27 29 30 31 34 33 27 29 33 32 32 32 35 34 32 28 21 23 18 17 7
5 6 5 5 4 5 4 3 7 5 5 6 6 7 7 6 8 10 12 9 10 17 23 27 29 31 31 33 32 29 30 32 32 33 33 32 28 24 22 21 17 16 13 10
1 3 3 2 3 2 4 7 6 6 4 6 5 5 3 1 5 13 11 12 10 7 2 11 23 27 31 32 32 28 32 33 29 31 28 27 24 20 17 18 18 17 9 8
6 6 4 4 2 3 5 8 7 6 4 6 6 8 4 4 7 9 13 15 13 11 9 7 3 7 17 24 27 28 25 26 26 24 25 22 18 19 20 18 14 10 8 21
7 6 3 3 2 2 6 4 5 5 2 4 4 5 6 9 12 13 11 12 13 11 9 6 4 2 5 11 17 20 21 22 22 24 24 23 23 21 14 8 4 18 17 11
2 6 3 5 4 5 1 3 7 6 3 2 6 7 13 17 14 12 9 8 8 7 6 4 2 4 7 11 16 17 18 21 24 24 23 20 16 10 4 13 20 25 10 11
6 6 5 3 5 7 8 4 8 5 2 7 7 8 11 5 3 3 3 6 6 5 4 4 4 4 7 10 14 18 22 24 23 20 16 11 2 10 18 27 11 9 13 19
3 3 5 3 3 7 7 5 10 6 8 18 19 17 15 5 5 13 9 8 7 7 7 7 8 9 11 15 18 21 21 18 15 8 5 10 19 18 13 9 11 16 22 24
7 7 4 3 3 6 7 6 8 7 12 23 17 16 14 15 17 16 12 11 10 10 11 11 14 16 17 14 9 10 7 4 10 11 15 14 10 9 11 15 19 20 21 22
2 6 6 8 6 2 4 5 7 24 31 21 23 20 19 23 20 17 15 14 16 17 17 16 16 17 15 9 5 0 2 3 6 6 6 8 11 14 16 18 20 21 22 25
2 4 4 4 2 1 5 15 25 26 26 21 21 21 20 22 22 20 19 20 19 17 16 14 12 10 8 6 5 5 4 4 5 8 11 13 15 16 17 19 21 24 25 28
4 8 6 2 1 7 6 17 23 23 23 22 20 19 18 21 23 24 24 21 18 16 14 11 9 9 10 7 4 2 3 5 7 10 12 14 17 19 22 24 26 28 30 30
6 7 6 5 19 8 14 22 22 24 22 19 18 20 19 20 27 26 24 20 17 16 14 13 12 10 7 3 1 3 6 9 12 15 18 21 24 26 27 31 36 35 35 36
Wind_Direction
50 74 193 230 182 216 262 268 277 323 284 182 210 241 200 183 173 181 178 184 192 202 207 204 204 201 202 204 204 204 206 203 205 209 210 212 213 216 221 221 220 227 227 220
29 239 230 192 283 354 28 335 320 299 296 195 171 231 211 185 184 186 189 197 201 206 207 206 205 206 208 206 208 214 214 213 211 214 212 215 218 223 225 224 233 234 227 225
169 245 149 261 118 343 337 214 255 242 328 27 116 325 168 206 212 206 205 204 206 207 206 206 208 210 209 207 209 213 215 217 218 216 217 220 224 223 223 233 240 239 239 228
233 280 140 228 200 178 332 270 273 293 42 221 99 266 273 204 208 204 207 205 210 209 208 206 209 210 212 211 211 214 213 216 218 218 221 225 230 225 236 247 250 234 221 223
241 166 192 230 235 128 232 284 304 230 219 12 331 99 262 146 213 219 214 209 206 207 207 208 210 215 215 213 214 217 216 216 217 219 222 229 230 238 248 244 226 216 215 217
222 248 164 223 229 178 265 166 61 56 96 22 248 139 283 195 207 221 217 213 209 210 210 214 214 215 217 217 218 219 221 222 218 219 228 233 233 241 232 226 217 212 218 222
51 268 289 213 119 349 66 52 349 352 11 225 351 26 238 268 272 221 209 206 213 211 209 212 212 215 217 220 218 220 224 228 228 227 233 231 232 232 228 224 219 220 222 225
145 322 193 263 163 169 154 143 161 227 212 281 0 255 259 262 283 49 208 214 214 211 213 214 216 218 221 222 221 223 225 230 234 232 236 227 223 220 219 225 232 237 237 231
142 248 331 269 247 137 153 345 187 102 19 55 258 296 314 329 22 58 151 184 196 208 210 216 217 220 224 224 221 225 228 235 237 233 227 216 218 218 228 235 240 241 228 223
205 152 193 298 17 284 167 159 98 2 158 230 286 287 247 311 304 316 144 205 212 209 212 216 218 222 224 224 221 227 238 243 238 226 219 222 222 223 229 239 236 229 225 224
138 121 254 166 200 210 157 215 92 128 137 166 209 264 218 246 261 270 280 209 200 205 206 208 218 224 227 223 225 227 235 235 226 221 222 227 224 225 231 229 223 219 218 228
198 137 172 209 212 164 205 180 134 122 233 176 153 268 252 240 250 259 251 234 231 216 205 209 217 223 222 227 231 231 232 228 222 226 230 231 221 220 222 216 219 221 239 258
179 180 90 345 5 17 230 207 169 120 83 202 146 255 280 265 237 237 245 246 224 214 209 212 215 221 226 228 228 232 228 224 222 227 226 219 212 220 220 225 221 240 244 241
141 144 157 186 207 171 192 202 174 144 129 194 222 262 275 254 306 300 268 253 244 224 219 220 221 224 226 226 230 239 234 227 224 225 220 215 217 222 218 220 240 228 238 236
135 165 160 217 190 188 214 215 165 173 203 164 244 205 262 282 276 280 285 232 238 240 235 234 235 234 235 234 237 240 233 222 229 216 216 216 217 217 226 234 214 228 198 254
198 181 121 90 7 202 198 220 201 207 196 258 253 242 235 345 68 63 80 115 100 98 133 246 247 246 244 238 236 247 225 217 218 210 213 211 212 223 218 212 221 218 222 210
136 132 108 220 5 15 328 224 212 221 195 176 196 221 148 64 72 74 92 90 90 90 86 81 87 252 251 245 245 244 234 217 213 213 207 206 210 207 199 199 200 175 249 296
135 109 87 158 48 317 247 309 214 154 299 241 143 131 127 126 99 85 89 96 91 83 79 78 87 152 216 230 230 228 214 206 198 195 195 199 195 189 172 165 233 306 296 266
99 117 100 138 190 292 331 211 160 154 235 299 134 128 138 119 92 58 74 78 82 83 89 112 158 209 219 220 215 208 193 192 191 186 182 177 163 151 220 305 302 288 268 285
65 61 118 146 152 209 230 230 176 123 246 200 171 167 166 135 95 250 132 127 127 122 122 128 140 169 191 185 197 196 180 176 170 163 155 149 220 305 298 300 282 285 291 290
71 29 158 129 192 284 245 214 149 151 235 175 175 168 172 161 204 164 170 156 160 156 154 152 148 150 157 167 176 165 157 150 145 145 208 261 289 302 301 287 289 289 291 289
159 149 182 86 82 274 188 138 169 203 138 163 163 153 142 146 147 158 166 159 150 139 127 123 121 112 112 121 145 134 146 228 277 287 298 304 302 291 293 294 294 293 291 290
189 185 178 177 206 260 238 238 198 156 154 158 156 158 158 157 160 162 154 141 129 127 126 126 125 124 122 120 109 145 241 280 309 315 319 317 311 307 304 303 301 298 297 297
249 155 112 116 216 37 131 152 159 160 156 156 162 162 164 162 165 157 147 141 138 134 129 126 125 121 111 91 68 70 52 7 333 321 321 322 321 317 311 307 306 305 304 303
195 136 128 81 75 95 134 155 154 152 152 155 157 164 168 168 158 155 148 145 138 133 127 125 118 110 100 97 91 53 331 318 316 315 313 309 305 303 301 298 298 297 295 298
241 162 167 203 189 155 173 163 160 154 152 155 163 154 156 165 157 156 144 139 136 131 127 125 122 124 113 90 24 330 322 318 316 314 311 311 308 306 305 304 302 298 297 295
Height
1495 1501 1503 1498 1496 1496 1499 1500 1497 1488 1485 1488 1494 1491 1490 1496 1495 1495 1499 1503 1505 1507 1509 1514 1518 1521 1524 1526 1530 1533 1536 1538 1541 1542 1544 1547 1548 1551 1553 1555 1556 1557 1558 1559
1499 1502 1491 1490 1490 1492 1492 1496 1497 1491 1486 1488 1491 1490 1488 1490 1490 1492 1495 1500 1502 1503 1507 1510 1514 1518 1520 1522 1526 1530 1533 1535 1538 1540 1542 1544 1547 1549 1551 1552 1553 1553 1555 1556
1500 1491 1488 1489 1491 1493 1492 1497 1497 1497 1490 1486 1491 1494 1489 1488 1491 1492 1494 1493 1497 1497 1499 1504 1507 1511 1515 1517 1520 1525 1528 1532 1535 1538 1540 1542 1544 1546 1546 1547 1549 1550 1552 1553
1495 1487 1488 1491 1491 1491 1499 1491 1490 1491 1498 1505 1489 1511 1490 1487 1487 1488 1490 1492 1492 1494 1497 1499 1502 1505 1506 1509 1517 1520 1524 1528 1531 1534 1537 1537 1539 1540 1542 1544 1546 1548 1550 1551
1492 1488 1490 1491 1487 1486 1495 1488 1490 1487 1494 1497 1495 1506 1494 1486 1489 1482 1482 1485 1486 1488 1491 1494 1495 1497 1502 1510 1514 1518 1522 1525 1528 1531 1532 1533 1535 1538 1540 1541 1543 1544 1546 1547
1487 1484 1485 1486 1482 1483 1483 1486 1491 1497 1501 1514 1495 1502 1499 1487 1479 1473 1475 1477 1481 1484 1486 1490 1495 1499 1501 1506 1511 1515 1518 1520 1524 1526 1528 1528 1531 1534 1536 1537 1539 1541 1543 1545
1487 1487 1483 1484 1486 1484 1485 1498 1518 1524 1526 1518 1494 1500 1490 1469 1467 1466 1467 1468 1472 1478 1483 1486 1491 1493 1495 1500 1507 1511 1513 1516 1519 1521 1523 1524 1528 1530 1532 1535 1537 1538 1540 1543
1498 1504 1485 1480 1484 1488 1489 1496 1521 1514 1528 1517 1496 1501 1483 1466 1461 1461 1460 1463 1467 1473 1478 1481 1484 1488 1491 1496 1503 1506 1508 1513 1515 1516 1519 1522 1525 1528 1531 1534 1535 1536 1536 1537
1496 1493 1482 1482 1480 1480 1487 1497 1491 1514 1520 1529 1509 1491 1472 1464 1460 1462 1460 1462 1465 1469 1473 1476 1480 1485 1488 1493 1499 1501 1504 1508 1511 1513 1516 1519 1522 1525 1528 1531 1532 1532 1530 1532
1480 1492 1484 1483 1482 1480 1482 1483 1502 1508 1512 1515 1507 1501 1495 1472 1464 1460 1465 1464 1464 1467 1471 1474 1478 1481 1485 1491 1496 1499 1502 1504 1507 1509 1512 1515 1518 1521 1523 1525 1526 1526 1527 1523
1473 1482 1490 1485 1486 1485 1488 1489 1491 1498 1510 1517 1524 1504 1476 1470 1465 1463 1462 1464 1466 1467 1469 1472 1475 1479 1483 1487 1492 1495 1498 1500 1502 1504 1507 1510 1513 1515 1518 1519 1519 1519 1521 1525
1468 1481 1498 1486 1475 1476 1478 1482 1487 1513 1503 1511 1520 1504 1466 1466 1463 1463 1462 1463 1464 1466 1468 1471 1474 1477 1480 1484 1488 1490 1493 1494 1497 1500 1502 1504 1506 1508 1509 1511 1514 1516 1522 1520
1465 1481 1498 1490 1483 1480 1483 1480 1479 1488 1500 1505 1518 1500 1464 1463 1462 1460 1462 1462 1463 1466 1469 1471 1473 1475 1478 1479 1482 1485 1488 1490 1493 1495 1496 1499 1502 1505 1508 1509 1510 1515 1513 1515
1451 1470 1476 1494 1481 1474 1476 1472 1474 1482 1507 1496 1498 1480 1467 1463 1464 1461 1460 1459 1461 1463 1465 1467 1470 1471 1474 1475 1478 1483 1485 1487 1490 1491 1493 1496 1499 1501 1505 1509 1510 1509 1511 1514
1451 1466 1466 1466 1465 1466 1464 1467 1474 1476 1479 1487 1477 1480 1468 1465 1462 1458 1454 1456 1458 1459 1462 1464 1467 1469 1472 1474 1476 1478 1481 1483 1486 1489 1492 1495 1500 1502 1504 1504 1506 1507 1509 1508
1450 1466 1459 1469 1468 1466 1467 1467 1468 1471 1470 1473 1471 1471 1464 1462 1463 1460 1458 1457 1458 1459 1460 1461 1464 1467 1469 1471 1473 1475 1478 1481 1485 1489 1491 1495 1498 1500 1501 1502 1504 1504 1505 1507
1452 1462 1475 1479 1478 1474 1489 1471 1465 1463 1461 1463 1472 1464 1461 1464 1465 1464 1463 1462 1461 1462 1463 1463 1464 1466 1468 1470 1473 1475 1478 1482 1484 1486 1491 1494 1496 1498 1499 1501 1501 1503 1504 1503
1452 1463 1476 1489 1488 1500 1462 1458 1456 1460 1462 1460 1459 1459 1461 1464 1466 1466 1466 1465 1464 1464 1465 1466 1467 1468 1469 1471 1473 1475 1477 1480 1483 1486 1488 1490 1492 1495 1499 1499 1500 1500 1498 1497
1438 1458 1482 1487 1492 1476 1459 1460 1460 1458 1463 1459 1459 1461 1463 1464 1465 1467 1467 1467 1467 1468 1469 1470 1470 1470 1470 1471 1473 1475 1477 1480 1482 1485 1488 1490 1494 1494 1496 1498 1497 1495 1494 1494
1445 1448 1465 1491 1489 1490 1460 1449 1449 1451 1473 1458 1458 1459 1461 1464 1474 1471 1470 1470 1470 1470 1470 1471 1471 1471 1471 1472 1473 1475 1477 1481 1484 1487 1490 1492 1494 1495 1494 1493 1491 1491 1491 1489
1462 1467 1469 1489 1484 1470 1448 1446 1449 1467 1464 1450 1455 1458 1461 1465 1466 1467 1470 1471 1471 1471 1472 1472 1472 1472 1473 1474 1476 1478 1482 1485 1488 1490 1491 1492 1493 1492 1491 1490 1489 1488 1486 1484
1446 1463 1476 1481 1486 1469 1440 1446 1453 1446 1443 1447 1452 1455 1459 1462 1465 1467 1470 1471 1472 1473 1475 1476 1476 1477 1480 1484 1485 1486 1488 1491 1491 1491 1492 1490 1490 1489 1488 1487 1486 1484 1481 1479
1439 1436 1447 1450 1451 1439 1438 1438 1438 1438 1440 1449 1451 1455 1457 1461 1465 1468 1470 1473 1475 1477 1477 1479 1480 1482 1484 1486 1487 1488 1489 1490 1490 1490 1490 1489 1488 1487 1485 1483 1481 1479 1477 1473
1427 1427 1436 1441 1439 1438 1437 1436 1438 1440 1442 1447 1451 1453 1456 1459 1464 1468 1472 1474 1476 1478 1479 1482 1483 1484 1485 1487 1488 1489 1490 1490 1489 1489 1488 1486 1485 1483 1481 1479 1476 1473 1470 1467
1420 1424 1433 1441 1439 1438 1437 1437 1438 1441 1444 1447 1451 1453 1456 1459 1464 1468 1471 1475 1477 1479 1481 1483 1484 1485 1487 1488 1488 1489 1489 1488 1487 1486 1485 1483 1480 1478 1475 1472 1469 1466 1463 1461
1420 1414 1424 1428 1419 1422 1430 1435 1439 1440 1443 1447 1449 1453 1458 1461 1463 1468 1472 1476 1478 1480 1482 1484 1485 1487 1487 1488 1489 1488 1487 1486 1484 1482 1480 1477 1474 1471 1468 1464 1458 1458 1455 1451